Retour au catalogue

HULIANWANG DIGUI-172

ActifScienceLEO
NORAD 69575·PAYLOAD·🇨🇳 China

Lancé Jun 17, 2026 depuis Wenchang Space Launch Site

Loading…

Prochains Passages (prochaines 24 heures)

TLE

FraisSource: Space-Track

Époque: Sep 14, 2026, 01:50 UTC

1 69575U 26137D   26257.07656363 -.00000098  00000-0  56852-4 0  9997
2 69575  49.9965 277.0825 0000187 321.6330  38.4529 13.29326173 12158

Suivez HULIANWANG DIGUI-172 en temps réel avec AllMySat

Download on the App Store